Stations météo

réclame
Mon MeteoGroup
Nimes-Garons, France (7646): Température de l'air & dewpoint: 19.01.2020 04:00:00 - 25.01.2020 04:00:00 (CET)Nimes-Garons, France (7646): Vitesse du vent & gusts: 19.01.2020 04:00:00 - 25.01.2020 04:00:00 (CET)Nimes-Garons, France (7646): Direction du vent: 19.01.2020 04:00:00 - 25.01.2020 04:00:00 (CET)Nimes-Garons, France (7646): reduced air pressure: 19.01.2020 04:00:00 - 25.01.2020 04:00:00 (CET)Nimes-Garons, France (7646): visibility: 19.01.2020 04:00:00 - 25.01.2020 04:00:00 (CET)Nimes-Garons, France (7646): Quantités de précipitations: 19.01.2020 04:00:00 - 25.01.2020 04:00:00 (CET)
Date & Time tt [°C] td [°C] ff [km/h] ff [knt] fx [km/h] fx [knt] dd ppp [hPa] vv [km] rr [mm]
25.01.2020 04:00:00 8,7 7,9 11 6 17 9 ENE 1022,0 11 0,0
25.01.2020 03:00:00 8,4 7,8 6 4 10 5 NE 1022,3 9 0,0
25.01.2020 02:00:00 8,2 7,4 5 3 9 5 NNE 1022,3 9 0,2
25.01.2020 01:00:00 8,5 7,9 5 3 8 5 NE 1022,8 10 0,0
25.01.2020 00:00:00 8,2 7,6 2 1 10 5 N 1022,8 10 0,2
24.01.2020 23:00:00 7,8 7,0 3 2 8 5 NE 1022,9 10 0,0
24.01.2020 22:00:00 7,9 7,1 5 3 10 6 NNW 1023,0 13 0,0
24.01.2020 21:00:00 8,3 7,7 6 3 8 5 N 1023,1 11 0,0
24.01.2020 20:00:00 8,1 7,5 5 3 10 5 N 1022,9 8 0,0
24.01.2020 19:00:00 8,4 8,0 5 3 9 5 NNE 1022,4 11 0,0
24.01.2020 18:00:00 8,7 8,1 5 3 8 5 NNW 1022,0 7 0,0
24.01.2020 17:00:00 10,2 9,0 4 2 12 6 W 1021,9 17 0,0
24.01.2020 16:00:00 10,5 8,8 9 5 18 10 E 1021,8 20 0,0
24.01.2020 15:00:00 10,3 8,2 10 5 19 11 E 1022,0 17 0,0
24.01.2020 14:00:00 10,1 8,2 9 5 17 9 E 1022,5 27 0,6
24.01.2020 13:00:00 9,2 7,6 13 7 21 11 E 1023,2 7 0,8
24.01.2020 12:00:00 9,4 8,0 5 3 14 7 NNE 1024,0 13 0,2
24.01.2020 11:00:00 9,0 7,6 5 3 18 10 N 1024,3 10 2,2
24.01.2020 10:00:00 10,2 5,6 7 4 23 12 NE 1023,7 20 0,2
24.01.2020 09:00:00 10,3 5,1 12 7 18 10 E 1023,4 55 0,0
24.01.2020 08:00:00 9,8 5,4 3 1 18 10 NNE 1023,2 35 0,0
24.01.2020 07:00:00 10,8 4,9 14 8 26 14 SE 1022,8 60 0,0
24.01.2020 06:00:00 10,3 5,7 17 9 27 15 ESE 1022,8 58 0,0
24.01.2020 05:00:00 10,4 6,2 17 9 27 14 ESE 1023,0 54 0,0
24.01.2020 04:00:00 10,3 6,8 12 7 21 12 ESE 1023,5 41 0,0
24.01.2020 03:00:00 10,7 7,4 13 7 22 12 ESE 1024,0 41 0,2
24.01.2020 02:00:00 10,5 7,4 12 7 27 15 ESE 1024,3 37 0,0
24.01.2020 01:00:00 10,6 7,3 16 9 28 15 ESE 1024,9 42 0,0
24.01.2020 00:00:00 11,0 7,1 13 7 25 13 ESE 1025,3 41 0,0
23.01.2020 23:00:00 11,4 7,9 16 9 23 13 ESE 1025,1 39 0,0
23.01.2020 22:00:00 11,1 8,0 14 8 23 12 ESE 1025,3 33 0,0
23.01.2020 21:00:00 11,3 8,0 12 6 19 10 E 1024,9 19 0,0
23.01.2020 20:00:00 12,0 8,1 16 9 29 15 SE 1024,6 34 0,0
23.01.2020 19:00:00 12,6 7,9 14 8 30 16 ESE 1024,6 41 0,0
23.01.2020 18:00:00 13,0 7,7 16 9 27 15 ESE 1024,1 47 0,0
23.01.2020 17:00:00 13,4 8,0 14 8 34 18 ESE 1023,9 40 0,0
23.01.2020 16:00:00 13,8 8,4 9 5 18 10 E 1024,0 35 0,0
23.01.2020 15:00:00 12,8 7,5 6 3 16 8 ENE 1024,2 19 0,0
23.01.2020 14:00:00 12,9 7,3 8 5 24 13 ENE 1024,6 20 0,0
23.01.2020 13:00:00 11,1 6,2 11 6 26 14 NE 1025,4 20 0,0
23.01.2020 12:00:00 9,3 4,5 16 9 27 15 NE 1025,5 17 0,0
23.01.2020 11:00:00 8,3 3,5 15 8 27 15 NE 1026,3 13 0,0
23.01.2020 10:00:00 7,0 2,5 13 7 29 16 ENE 1026,2 12 0,0
23.01.2020 09:00:00 6,2 2,1 19 10 32 17 ENE 1025,8 13 0,0
23.01.2020 08:00:00 5,4 0,9 11 6 22 12 ENE 1026,1 13 0,0
23.01.2020 07:00:00 5,0 0,6 12 6 26 14 ENE 1025,9 13 0,0
23.01.2020 06:00:00 5,2 0,4 18 10 28 15 NE 1025,9 13 0,0
23.01.2020 05:00:00 5,5 -0,1 14 8 26 14 NE 1026,7 15 0,0
23.01.2020 04:00:00 6,0 -0,3 14 7 22 12 NE 1026,8 17 0,0
23.01.2020 03:00:00 6,3 -0,5 14 7 27 15 NE 1027,1 18 0,0
23.01.2020 02:00:00 6,2 -0,5 16 9 29 16 NE 1026,7 20 0,0
23.01.2020 01:00:00 6,6 -0,6 14 8 24 13 NE 1026,7 20 0,0
23.01.2020 00:00:00 6,8 -0,4 16 8 26 14 NE 1026,8 20 0,0
22.01.2020 23:00:00 6,9 -0,1 12 6 22 12 NE 1027,0 22 0,0
22.01.2020 22:00:00 6,8 0,5 11 6 19 11 NE 1027,1 20 0,0
22.01.2020 21:00:00 6,6 0,7 10 5 23 13 NE 1027,3 18 0,0
22.01.2020 20:00:00 6,9 0,8 16 9 27 15 NE 1027,2 17 0,0
22.01.2020 19:00:00 7,8 1,0 14 8 26 14 NE 1027,1 20 0,0
22.01.2020 18:00:00 8,3 1,0 17 9 29 15 NE 1026,9 27 0,0
22.01.2020 17:00:00 8,9 1,8 14 8 23 12 NE 1027,2 33 0,0
22.01.2020 16:00:00 9,5 2,3 10 6 29 16 NE 1027,4 31 0,0
22.01.2020 15:00:00 9,8 3,1 15 8 27 15 NE 1027,8 31 0,0
22.01.2020 14:00:00 9,9 3,4 16 8 29 16 NE 1028,6 30 0,0
22.01.2020 13:00:00 10,0 4,1 15 8 29 16 NE 1029,2 27 0,0
22.01.2020 12:00:00 8,9 4,1 16 8 25 14 NE 1030,0 22 0,0
22.01.2020 11:00:00 7,1 3,0 16 9 29 15 NE 1030,1 19 0,0
22.01.2020 10:00:00 6,2 3,0 13 7 25 14 NNE 1029,8 18 0,0
22.01.2020 09:00:00 5,6 2,9 12 6 32 17 NNE 1029,3 16 0,2
22.01.2020 08:00:00 5,3 2,6 16 9 30 16 NNE 1029,0 12 0,6
22.01.2020 07:00:00 5,4 1,5 16 9 36 19 NE 1029,2 9 0,4
22.01.2020 06:00:00 6,3 0,2 19 10 34 19 NE 1028,9 25 0,0
22.01.2020 05:00:00 6,2 -0,3 18 10 32 17 NE 1029,3 27 0,0
22.01.2020 04:00:00 5,9 0,2 15 8 26 14 NNE 1029,9 28 0,0
22.01.2020 03:00:00 6,2 -0,5 17 9 30 16 NE 1030,6 33 0,0
22.01.2020 02:00:00 5,6 -0,9 11 6 24 13 NE 1030,8 33 0,0
22.01.2020 01:00:00 5,7 -0,8 15 8 26 14 NE 1031,4 30 0,0
22.01.2020 00:00:00 6,2 -0,8 19 10 35 19 NE 1031,9 28 0,0
21.01.2020 23:00:00 6,5 -1,2 18 10 27 15 NE 1032,2 31 0,0
21.01.2020 22:00:00 6,3 -0,2 13 7 28 15 NE 1032,6 30 0,0
21.01.2020 21:00:00 6,6 0,1 16 8 29 16 NNE 1032,7 35 0,0
21.01.2020 20:00:00 6,5 0,4 14 8 25 13 NNE 1032,9 33 0,0
21.01.2020 19:00:00 6,3 0,2 12 7 26 14 NNE 1032,7 43 0,0
21.01.2020 18:00:00 6,7 0,1 15 8 27 15 NE 1032,6 41 0,0
21.01.2020 17:00:00 6,9 1,0 14 8 26 14 NE 1032,6 34 0,0
21.01.2020 16:00:00 7,0 1,3 16 9 35 19 NE 1032,8 33 0,0
21.01.2020 15:00:00 6,2 1,3 18 10 33 18 NE 1033,3 30 0,0
21.01.2020 14:00:00 5,4 1,3 16 8 25 14 NE 1034,6 26 0,0
21.01.2020 13:00:00 5,0 2,2 14 7 27 14 NE 1035,4 20 0,0
21.01.2020 12:00:00 4,8 2,7 18 10 34 18 NNE 1036,1 19 0,0
21.01.2020 11:00:00 4,4 3,1 15 8 29 16 NNE 1036,3 14 0,6
21.01.2020 10:00:00 3,9 2,3 18 10 34 18 NNE 1035,9 15 0,4
21.01.2020 09:00:00 3,5 2,2 19 10 34 19 NNE 1035,5 13 0,8
21.01.2020 08:00:00 3,4 2,2 16 9 34 19 NNE 1035,4 8 0,8
21.01.2020 07:00:00 3,3 2,0 19 10 33 18 NNE 1035,2 9 0,8
21.01.2020 06:00:00 3,3 1,7 18 10 33 18 NNE 1035,4 12 1,0
21.01.2020 05:00:00 3,6 1,5 18 10 28 15 NNE 1036,0 10 0,8
21.01.2020 04:00:00 4,3 0,4 16 9 32 18 NNE 1036,0 27 0,0
21.01.2020 03:00:00 4,2 0,9 16 9 26 14 NNE 1036,4 34 0,0
21.01.2020 02:00:00 4,1 0,8 16 9 24 13 N 1036,4 27 0,0
21.01.2020 01:00:00 4,4 0,5 13 7 22 12 NNE 1037,0 15 0,2
21.01.2020 00:00:00 5,4 -1,1 14 7 24 13 NE 1037,2 37 0,0
20.01.2020 23:00:00 5,6 -1,8 9 5 31 17 ENE 1036,8 43 0,0
20.01.2020 22:00:00 5,7 -1,7 18 10 33 18 NNE 1036,4 46 0,0
20.01.2020 21:00:00 5,7 -1,9 18 10 34 19 NNE 1036,2 45 0,0
20.01.2020 20:00:00 5,7 -1,9 22 12 40 22 NNE 1035,9 45 0,0
20.01.2020 19:00:00 5,8 -2,3 17 9 35 19 NE 1035,6 47 0,0
20.01.2020 18:00:00 5,7 -2,7 23 12 39 21 NNE 1034,9 52 0,0
20.01.2020 17:00:00 6,0 -3,1 19 10 39 21 NNE 1034,5 60 0,0
20.01.2020 16:00:00 6,4 -2,8 20 11 45 24 NNE 1034,2 60 0,0
20.01.2020 15:00:00 6,8 -2,4 28 15 48 26 N 1034,0 60 0,0
20.01.2020 14:00:00 7,1 -2,6 26 14 45 25 N 1034,0 52 0,0
20.01.2020 13:00:00 6,9 -2,3 26 14 47 26 N 1034,3 57 0,0
20.01.2020 12:00:00 6,1 -2,5 25 13 48 26 N 1035,0 57 0,0
20.01.2020 11:00:00 5,7 -2,4 28 15 58 31 NNE 1035,4 56 0,0
20.01.2020 10:00:00 4,8 -3,0 31 17 52 28 N 1034,6 58 0,0
20.01.2020 09:00:00 4,4 -2,7 24 13 46 25 NNE 1034,0 60 0,0
20.01.2020 08:00:00 4,2 -2,7 24 13 45 24 N 1033,4 60 0,0
20.01.2020 07:00:00 4,2 -2,4 25 13 42 23 N 1032,6 60 0,0
20.01.2020 06:00:00 4,2 -2,4 29 15 46 25 NNE 1032,2 60 0,0
20.01.2020 05:00:00 4,3 -2,6 27 15 53 29 NNE 1032,1 60 0,0
20.01.2020 04:00:00 4,1 -2,1 32 17 56 30 NNE 1032,1 60 0,0
20.01.2020 03:00:00 4,2 -2,2 30 16 60 33 NNE 1032,3 60 0,0
20.01.2020 02:00:00 4,5 -2,6 33 18 60 32 NNE 1031,8 60 0,0
20.01.2020 01:00:00 4,4 -2,7 29 16 56 31 NNE 1031,8 60 0,0
20.01.2020 00:00:00 4,7 -2,4 34 19 64 35 NNE 1031,6 60 0,0
19.01.2020 23:00:00 4,8 -2,5 34 19 73 39 N 1031,3 60 0,0
19.01.2020 22:00:00 5,3 -3,0 30 16 64 35 N 1030,7 60 0,0
19.01.2020 21:00:00 5,5 -2,4 33 18 68 37 NNE 1030,4 60 0,0
19.01.2020 20:00:00 5,6 -1,8 40 21 74 40 N 1029,3 60 0,0
19.01.2020 19:00:00 5,8 -1,4 36 19 67 36 N 1028,7 60 0,0
19.01.2020 18:00:00 5,8 -1,6 40 21 73 40 NNE 1028,4 60 0,0
19.01.2020 17:00:00 6,5 -2,2 37 20 67 36 NNE 1028,3 50 0,0
19.01.2020 16:00:00 7,6 -2,2 46 25 79 42 NNE 1027,6 60 0,0
19.01.2020 15:00:00 7,0 -2,7 38 21 69 37 NNE 1027,1 60 0,0
19.01.2020 14:00:00 7,1 -2,6 29 16 69 38 N 1027,0 60 0,0
19.01.2020 13:00:00 7,3 -1,7 44 24 76 41 NNE 1026,9 60 0,0
19.01.2020 12:00:00 6,8 -1,9 35 19 69 38 NNE 1027,5 60 0,0
19.01.2020 11:00:00 6,6 -1,8 36 19 70 38 NNE 1026,9 59 0,0
19.01.2020 10:00:00 5,5 -1,9 32 18 50 27 NNE 1026,4 60 0,0
19.01.2020 09:00:00 5,3 -2,1 26 14 62 33 NNE 1025,6 60 0,0
19.01.2020 08:00:00 5,6 -2,0 34 18 58 32 NNE 1024,7 60 0,0
19.01.2020 07:00:00 5,6 -1,8 29 16 61 33 NNE 1024,2 60 0,0
19.01.2020 06:00:00 5,4 -1,5 27 15 52 28 NNE 1023,8 60 0,0
19.01.2020 05:00:00 5,0 -1,0 29 16 51 28 NNE 1023,5 60 0,0
19.01.2020 04:00:00 5,2 -0,6 26 14 48 26 NNE 1023,5 60 0,0

tt = Température de l'air
td = dewpoint
ff = Vitesse du vent
fx = gusts
dd = Direction du vent
ppp = reduced air pressure
vv = visibility
rr = Quantités de précipitations

stations d'obs. à proximité